Weather Roundup
Issued by NWS Corpus Christi, TX

Home | Current Version | Previous Version | Text Only | Print | Product List | Glossary On
Versions: 1 2 3 4 5 6 7 8 9 10 11 12 13 14 15 16 17 18 19 20 21 22 23 24 25 26 27 28 29 30 31 32 33 34 35 36 37 38 39 40 41 42 43 44 45 46 47 48 49 50
000
ASUS44 KCRP 241210
HRRCRP

SOUTH TEXAS REGIONAL WEATHER ROUNDUP
NATIONAL WEATHER SERVICE CORPUS CHRISTI TX
700 AM CDT SAT JUN 24 2017


TXZ229>244-241300-
...CORPUS CHRISTI AREA OBSERVATIONS...

CITY           SKY/WX    TMP DP  RH WIND       PRES   REMARKS
CORPUS CHRISTI MOCLDY    80  77  90 SE6       29.93R
NAS CORPUS CHR PTCLDY    85  79  82 SE14      29.93R HX  98
ROCKPORT       PTCLDY    83  77  82 SE8       29.93R HX  92
KINGSVILLE NAS MOCLDY    79  79 100 SE5       29.92R
ALICE          CLOUDY    77  76  96 NE3       29.92R FOG
ORANGE GROVE   PTCLDY    78  78 100 E5        29.94R FOG
FALFURRIAS     CLEAR     78  77  96 E5        29.92R
$$

...VICTORIA AREA OBSERVATIONS...

CITY           SKY/WX    TMP DP  RH WIND       PRES   REMARKS
VICTORIA       CLOUDY    80  77  90 NE3       29.96R FOG
BEEVILLE       MOCLDY   N/A N/A N/A CALM      29.95R FOG
PLEASANTON     PTCLDY    78  75  92 SE3       29.95S FOG
SAN ANTONIO    MOCLDY    79  74  84 SE7       29.98S
$$

...LAREDO AREA OBSERVATIONS...

CITY           SKY/WX    TMP DP  RH WIND       PRES   REMARKS
LAREDO         CLOUDY    80  75  84 E7        29.93R
COTULLA        CLEAR     78  75  90 SE7       29.93S
DEL RIO        MOCLDY    73  69  87 NE6       29.92R
MCALLEN        MOCLDY    83  77  82 E6        29.91R HX  92
HEBBRONVILLE   CLOUDY    77  75  94 CALM      29.94R FOG
$$

...OTHER TEXAS OBSERVATIONS...

CITY           SKY/WX    TMP DP  RH WIND       PRES   REMARKS
BROWNSVILLE    MOCLDY    80  78  94 SE6       29.90R
HOUSTON        TSTM      76  74  93 W3        29.97F
COL. STATION   LGT RAIN  70  70 100 N13       30.03R
AUSTIN         CLOUDY    80  77  90 SE6       29.99R FOG
WACO             N/A    N/A N/A N/A MISG      30.06R
FORT WORTH     TSTM      73  71  93 NW20      30.07R VSB 3/4
WICHITA FALLS  LGT RAIN  66  63  90 NE22      30.12R
LUBBOCK        CLOUDY    62  56  80 NE22G33   30.20R
EL PASO        PTCLDY    78  56  46 E5        30.07R
$$

...MARINE OBSERVATIONS...

STATION/POSITION TIME  SKY/WX   TEMP    WIND        PRES    VSBY  WAVE   SWELL
                                AIR SEA DIR/SP/G                  HT/PER HT/PER
                 (UTC)          (F)     (DEG/KT/KT) (MB)    (MI)  (FT/S) (FT/S)
PORT ARANSAS     1200            83 85  140/ 16/ 18 1013.6R
BUOY 90 E PORT A 1050            83 83  130/ 12/ 12 1013.5          5/ 7   5/ 7
BUOY 45 SE BAFFI 1050            84     150/ 17/ 19 1011.3          5/ 7
BUOY 200 E PT IS 1050            83 83  130/ 12/ 14 1013.6          5/ 7   5/ 7
BUOY 15 E GALVES 1050            82 83  180/  8/ 10 1014.6          4/ 7   3/ 7
$$




USA.gov is the U.S. government's official web portal to all federal, state and local government web resources and services.